Location: Newark
(51.3318°N, 0.0053°E)
Time: 08:41:47
(UTC+00:00)

Sep Motor Cover - Pass Details

Date: 17 December 2022
Orbit: 663 x 834 km, 71.0° (Epoch: 06 February)

Event Time Altitude Azimuth Distance (km) Brightness Sun altitude
Rises 18:38:57 0° 330° (NNW) 3,313 10.1 -24.6°
Reaches altitude 10° 18:42:20 10° 351° (N) 2,408 9.1 -25.1°
Enters shadow 18:43:43 14° 5° (N) 2,162 8.7 -25.3°
